Location: Karlsruhe
(49.0131°N, 8.3874°E)
Time: 15:54:35
(UTC+02:00)

ISS - Pass Details

Date: 21 May 2021
Orbit: 419 x 422 km, 51.6° (Epoch: 25 June)

Event Time Altitude Azimuth Distance (km) Brightness Sun altitude
Rises 23:36:11 0° 284° (WNW) 2,373 0.7 -16.6°
Reaches altitude 10° 23:38:19 10° 288° (WNW) 1,508 -0.3 -16.8°
Maximum altitude 23:41:40 58° 9° (N) 500 -3.2 -17.0°
Enters shadow 23:44:02 18° 85° (E) 1,123 -1.8 -17.2°
